Content
SEND FEEDBACK

Daily
Averages
Monthly
Summary
France

LE HAVRE, FRANCE


Home > Europe > France
Elevation: 338 feet     Latitude: 49 31N     Longitude: 000 04E

WEATHER
 
SELECT A DAY
Number of Records: 175,964;   Date Range: 3/4/97 - 7/23/14
 
SHARE

PRINT THIS DATA

[ ← Previous Day ]
WEATHER ALMANAC - APRIL 7, 2013
[ Next Day → ]
[ °C ]   °F
Weather ElementAverageHighLow
Temperature40.4 °F48.2 °F (3:00 pm)30.2 °F (5:30 am)
Dewpoint28.7 °F33.8 °F (11:30 pm)26.6 °F (6:30 am)
Humidity65.6 %93 % (5:30 am)43 % (4:00 pm)
Barometer30.09 in30.27 in (12:30 am)29.83 in (11:30 pm)
Wind Speed6.1 mph11.5 mph (12:30 pm)
Weather ElementAverage
Visibility6.1 mi
Wind DirectionESE (100.2 °)

Weather ElementTotal
Precipitation---
Heating Degree Days25.8 (Base 65)
Averaged from 47 records on April 7, 2013
WEATHER CONDITIONS BREAKOUT
WIND DIRECTION BREAKOUT
WEATHER BY HOUR - APRIL 7, 2013
[ °C ]   °F
Local TimeTemperatureDewpointHumidityBarometerVisibilityWind DirectionWind SpeedGust SpeedPrecipitationEventsConditions
12:30 AM35.6 °F32.0 °F87 %30.27 in6.2 miENE (60°)4.6 mph
1:00 AM35.6 °F30.2 °F81 %30.27 in6.2 miENE (70°)4.6 mph
1:30 AM33.8 °F30.2 °F87 %30.27 in6.2 miENE (70°)4.6 mph
2:00 AM33.8 °F30.2 °F87 %30.24 in6.2 miEast (100°)3.5 mph
2:30 AM33.8 °F30.2 °F87 %30.24 in6.2 miEast (100°)4.6 mph
3:00 AM32.0 °F28.4 °F87 %30.24 in6.2 miEast (90°)5.8 mph
3:30 AM32.0 °F28.4 °F87 %30.24 in6.2 miEast (90°)6.9 mph
4:00 AM32.0 °F28.4 °F87 %30.21 in6.2 miEast (90°)5.8 mph
4:30 AM32.0 °F28.4 °F87 %30.21 in6.2 miEast (100°)5.8 mph
5:00 AM32.0 °F28.4 °F87 %30.21 in6.2 miEast (90°)4.6 mph
5:30 AM30.2 °F28.4 °F93 %30.21 in6.2 miEast (80°)4.6 mph
6:00 AM32.0 °F28.4 °F87 %30.21 in6.2 miEast (90°)3.5 mph
6:30 AM32.0 °F26.6 °F80 %30.18 in6.2 miEast (80°)4.6 mph
7:00 AM30.2 °F26.6 °F86 %30.18 in6.2 miEast (90°)4.6 mph
7:30 AM30.2 °F26.6 °F86 %30.18 in6.2 miEast (90°)4.6 mph
8:00 AM32.0 °F26.6 °F80 %30.18 in6.2 miEast (100°)4.6 mph
8:30 AM32.0 °F26.6 °F80 %30.18 in6.2 miEast (90°)5.8 mph
9:00 AM33.8 °F28.4 °F81 %30.18 in6.2 miEast (90°)5.8 mph
9:30 AM35.6 °F28.4 °F75 %30.18 in6.2 miEast (90°)4.6 mph
10:00 AM37.4 °F32.0 °F81 %30.15 in6.2 miEast (90°)4.6 mph
10:30 AM41.0 °F30.2 °F65 %30.15 in6.2 miESE (110°)6.9 mph
11:00 AM42.8 °F30.2 °F61 %30.15 in5.6 miESE (110°)5.8 mph
11:30 AM42.8 °F28.4 °F57 %30.15 in5.6 miESE (110°)6.9 mph
12:00 PM44.6 °F28.4 °F53 %30.15 in6.2 miESE (110°)8.1 mph
12:30 PM44.6 °F26.6 °F49 %30.12 in6.2 miSE (130°)11.5 mphScattered Clouds
1:00 PM44.6 °F28.4 °F53 %30.12 in6.2 miESE (110°)8.1 mphScattered Clouds
1:30 PM46.4 °F28.4 °F50 %30.09 in6.2 miSE (140°)8.1 mphMostly Cloudy
2:00 PM46.4 °F28.4 °F50 %30.09 in6.2 miESE (110°)6.9 mphMostly Cloudy
2:30 PM46.4 °F26.6 °F46 %30.06 in6.2 miESE (110°)6.9 mphMostly Cloudy
3:00 PM48.2 °F28.4 °F46 %30.04 in6.2 miEast (90°)10.4 mphScattered Clouds
3:30 PM48.2 °F28.4 °F46 %30.04 in6.2 miSSE (150°)6.9 mphMostly Cloudy
4:00 PM48.2 °F26.6 °F43 %30.01 in6.2 miSE (130°)8.1 mphMostly Cloudy
4:30 PM48.2 °F26.6 °F43 %30.01 in6.2 miSE (140°)6.9 mphMostly Cloudy
5:00 PM48.2 °F28.4 °F46 %29.98 in6.2 miESE (110°)4.6 mph
5:30 PM48.2 °F28.4 °F46 %29.98 in6.2 miEast (100°)8.1 mph
6:00 PM48.2 °F28.4 °F46 %29.95 in6.2 miESE (120°)9.2 mph
6:30 PM48.2 °F30.2 °F50 %29.95 in6.2 miEast (100°)9.2 mphMostly Cloudy
7:00 PM48.2 °F28.4 °F46 %29.92 in6.2 miESE (120°)9.2 mph
7:30 PM48.2 °F28.4 °F46 %29.92 in6.2 miSE (140°)10.4 mphOvercast
8:00 PM48.2 °F28.4 °F46 %29.92 in6.2 miSE (140°)10.4 mphMostly Cloudy
8:30 PM48.2 °F28.4 °F46 %29.92 in6.2 miSE (140°)9.2 mphScattered Clouds
9:00 PM46.4 °F28.4 °F50 %29.89 in6.2 miSSE (150°)5.8 mph
9:30 PM46.4 °F28.4 °F50 %29.89 in6.2 miSSE (160°)3.5 mph
10:00 PM46.4 °F28.4 °F50 %29.89 in6.2 miVariable1.2 mph
10:30 PM42.8 °F30.2 °F61 %29.89 in6.2 miCalm
11:00 PM41.0 °F32.0 °F70 %29.86 in5.6 miENE (60°)3.5 mph
11:30 PM41.0 °F33.8 °F76 %29.83 in4.3 miENE (70°)3.5 mph
Hourly data recorded from LFOH, located miles away from Le Havre, France







STORIES FROM OUR PARTNERS